HORS 3 (RS81S)

Last updated on Thu Oct 30 2025 00:03:10 GMT+0000 (Coordinated Universal Time)

1 61753U 24199U 25302.52965979 .00029419 00000+0 74640-3 0 9999 2 61753 97.3284 170.9431 0011033 50.6824 309.5398 15.39573664101890
UTC large
Height (km)
Speed (km/s)
/
Latitude / Longitude
Inclination (degrees)
Orbital Period (minutes)
Azimuth
Elevation
Range (km)
Doppler Factor

Next 0 passes for location: London (51.5072 / 0.1276)

Sorry there are no passes over London.